This is the latest recevied weather packets stored in our database for station/object KG5CK-1. If no packets are shown the sender has not sent any weather packets the latest 1 day(s).
| Time | Temp. | Humidity | Pressure | Rain* | Wind** | Luminosity | Snow |
|---|---|---|---|---|---|---|---|
| 1778026983 | 26.11° C | 67% | 1001.3 hPa | 0 mm | 1.34 m/s, 353° | - | - |
| 1778026504 | 26.67° C | 66% | 1001.5 hPa | 0 mm | 1.34 m/s, 20° | - | - |
| 1778026383 | 26.67° C | 66% | 1001.5 hPa | 0 mm | 1.34 m/s, 20° | - | - |
| 1778026323 | 26.67° C | 66% | 1001.5 hPa | 0 mm | 1.34 m/s, 20° | - | - |
| 1778026203 | 26.67° C | 66% | 1001.1 hPa | 0 mm | 1.79 m/s, 23° | - | - |
| 1778026083 | 26.67° C | 66% | 1001.1 hPa | 0 mm | 1.79 m/s, 23° | - | - |
| 1778025843 | 26.67° C | 66% | 1000.6 hPa | 0 mm | 1.34 m/s, 14° | - | - |
| 1778025183 | 27.22° C | 65% | 1000.6 hPa | 0 mm | 1.34 m/s, 354° | - | - |
| 1778024703 | 28.33° C | 61% | 1000.5 hPa | 0 mm | 2.68 m/s, 352° | - | - |
| 1778024163 | 28.89° C | 57% | 1000.6 hPa | 0 mm | 0.89 m/s, 345° | - | - |
| 1778023683 | 29.44° C | 55% | 1000.6 hPa | 0 mm | 0.89 m/s, 41° | - | - |
| 1778023443 | 29.44° C | 54% | 1000.4 hPa | 0 mm | 1.34 m/s, 42° | - | - |
| 1778023383 | 29.44° C | 54% | 1000.4 hPa | 0 mm | 1.34 m/s, 42° | - | - |
| 1778023323 | 29.44° C | 54% | 1000.4 hPa | 0 mm | 1.34 m/s, 42° | - | - |
| 1778022963 | 30° C | 53% | 1000.5 hPa | 0 mm | 1.34 m/s, 15° | - | - |
| 1778022843 | 31.11° C | 60% | 1000.2 hPa | 0 mm | 0.89 m/s, 29° | - | - |
| 1778022723 | 31.11° C | 60% | 1000.2 hPa | 0 mm | 0.89 m/s, 29° | - | - |
| 1778022663 | 31.11° C | 60% | 1000.2 hPa | 0 mm | 0.89 m/s, 29° | - | - |
| 1778022303 | 31.11° C | 58% | 999.6 hPa | 0 mm | 0.45 m/s, 89° | - | - |
| 1778022243 | 31.11° C | 58% | 999.6 hPa | 0 mm | 0.45 m/s, 89° | - | - |
* Rain latest hour (hover to see other rain measurements)
** Current wind speed in m/s (hover to see current wind gust speed)